ENY4194 SVMI-KMIA

Flight info

Callsign ENY4194
Flight time N/A
Altitude 30000
Route VADOR2 PULPO UL216 AGMEX UL304 FRIST/N0452F320 UL304 ALRED UL212 OMERO UL218 MIROM DCT ZEUSS VIICE2
Aircraft E75L/M-SDE3GILORVW/S

Departure

Time 2026-05-05 21:01
Airport Maiquetía Simón Bolívar International Airport (SVMI)

Arrival

Time N/A
Airport Miami International Airport (KMIA)
Time Latitude Longitude Altitude Speed Heading
2026-05-05 20:13 10.59822 -67.00676 244 ft 0 kts 179°
2026-05-05 20:50 10.59826 -67.00676 244 ft 2 kts 179°
2026-05-05 20:51 10.59842 -67.00676 244 ft 2 kts 180°
2026-05-05 20:51 10.59858 -67.00676 244 ft 2 kts 181°
2026-05-05 20:51 10.59874 -67.00675 244 ft 2 kts 181°
2026-05-05 20:51 10.59890 -67.00674 244 ft 2 kts 195°
2026-05-05 20:52 10.59905 -67.00668 244 ft 2 kts 224°
2026-05-05 20:52 10.59913 -67.00655 244 ft 2 kts 264°
2026-05-05 20:52 10.59914 -67.00642 244 ft 0 kts 268°
2026-05-05 20:54 10.59914 -67.00643 244 ft 0 kts 268°
2026-05-05 20:57 10.59913 -67.00656 244 ft 6 kts 268°
2026-05-05 20:57 10.59910 -67.00728 244 ft 14 kts 267°
2026-05-05 20:57 10.59905 -67.00841 244 ft 18 kts 267°
2026-05-05 20:58 10.59899 -67.00973 244 ft 19 kts 267°
2026-05-05 20:58 10.59892 -67.01104 244 ft 18 kts 267°
2026-05-05 20:58 10.59909 -67.01222 244 ft 14 kts 336°
2026-05-05 20:58 10.60000 -67.01236 244 ft 13 kts 352°
2026-05-05 20:59 10.60087 -67.01246 244 ft 12 kts 356°
2026-05-05 20:59 10.60170 -67.01249 244 ft 11 kts 359°
2026-05-05 20:59 10.60246 -67.01251 244 ft 11 kts 359°
2026-05-05 20:59 10.60327 -67.01251 244 ft 8 kts
2026-05-05 21:00 10.60370 -67.01239 244 ft 6 kts 28°
2026-05-05 21:00 10.60378 -67.01233 244 ft 0 kts 51°
2026-05-05 21:00 10.60380 -67.01227 244 ft 1 kts 86°
2026-05-05 21:00 10.60391 -67.01050 244 ft 60 kts 94°
2026-05-05 21:01 10.60405 -67.00411 244 ft 118 kts 89°
2026-05-05 21:01 10.60437 -66.99429 245 ft 158 kts 89°
2026-05-05 21:01 10.60482 -66.98246 525 ft 173 kts 88°
2026-05-05 21:01 10.60551 -66.97011 1035 ft 180 kts 86°
2026-05-05 21:02 10.60661 -66.95717 1578 ft 186 kts 85°
2026-05-05 21:02 10.60844 -66.94406 2189 ft 186 kts 80°
2026-05-05 21:02 10.61122 -66.93132 2864 ft 184 kts 78°
2026-05-05 21:02 10.61458 -66.91846 3368 ft 193 kts 75°
2026-05-05 21:03 10.61914 -66.90508 3769 ft 207 kts 67°
2026-05-05 21:03 10.62574 -66.89176 4235 ft 220 kts 60°
2026-05-05 21:03 10.63448 -66.87815 4795 ft 231 kts 51°
2026-05-05 21:03 10.64748 -66.86842 5225 ft 247 kts 19°
2026-05-05 21:04 10.66504 -66.86719 5564 ft 266 kts 349°
2026-05-05 21:04 10.68308 -66.87285 6218 ft 270 kts 340°
2026-05-05 21:04 10.70064 -66.88052 6588 ft 286 kts 335°
2026-05-05 21:04 10.71858 -66.88940 7253 ft 289 kts 335°
2026-05-05 21:05 10.73775 -66.89689 7823 ft 296 kts 345°
2026-05-05 21:05 10.75810 -66.90057 8433 ft 300 kts 356°
2026-05-05 21:05 10.77893 -66.90103 9059 ft 302 kts
2026-05-05 21:05 10.79993 -66.89975 9690 ft 306 kts
2026-05-05 21:06 10.82110 -66.89799 10339 ft 309 kts
2026-05-05 21:06 10.84295 -66.89706 10989 ft 314 kts 359°
2026-05-05 21:06 10.86389 -66.90377 11568 ft 323 kts 331°
2026-05-05 21:06 10.88215 -66.91733 12183 ft 327 kts 321°
2026-05-05 21:07 10.89938 -66.93233 12764 ft 330 kts 320°
2026-05-05 21:07 10.91723 -66.94729 13342 ft 334 kts 323°
2026-05-05 21:07 10.93529 -66.96106 13898 ft 336 kts 326°
2026-05-05 21:07 10.95432 -66.97449 14493 ft 337 kts 328°
2026-05-05 21:08 10.97402 -66.98789 15091 ft 338 kts 328°
2026-05-05 21:08 10.99370 -67.00120 15667 ft 339 kts 328°
2026-05-05 21:08 11.01337 -67.01464 16220 ft 341 kts 328°
2026-05-05 21:08 11.03274 -67.02797 16743 ft 342 kts 328°
2026-05-05 21:09 11.05273 -67.04178 17267 ft 344 kts 328°
2026-05-05 21:09 11.07267 -67.05557 17765 ft 345 kts 328°
2026-05-05 21:09 11.09233 -67.06918 18279 ft 345 kts 328°
2026-05-05 21:09 11.11215 -67.08291 18828 ft 344 kts 328°
2026-05-05 21:10 11.13184 -67.09656 19357 ft 343 kts 327°
2026-05-05 21:10 11.15181 -67.11040 19845 ft 343 kts 327°
2026-05-05 21:10 11.17120 -67.12384 20285 ft 344 kts 327°
2026-05-05 21:10 11.19108 -67.13763 20702 ft 345 kts 327°
2026-05-05 21:11 11.21122 -67.15159 21101 ft 347 kts 327°
2026-05-05 21:11 11.23093 -67.16526 21470 ft 349 kts 327°
2026-05-05 21:11 11.25105 -67.17921 21839 ft 351 kts 326°
2026-05-05 21:11 11.27128 -67.19324 22218 ft 352 kts 326°
2026-05-05 21:12 11.29153 -67.20729 22580 ft 354 kts 326°
2026-05-05 21:12 11.31241 -67.22105 22809 ft 359 kts 332°
2026-05-05 21:12 11.33609 -67.22931 22995 ft 366 kts 347°
2026-05-05 21:12 11.36119 -67.23488 23179 ft 371 kts 343°
2026-05-05 21:13 11.38616 -67.24247 23360 ft 377 kts 342°
2026-05-05 21:13 11.41159 -67.25050 23541 ft 383 kts 342°
2026-05-05 21:13 11.43685 -67.25859 23744 ft 387 kts 342°
2026-05-05 21:13 11.46266 -67.26686 23991 ft 390 kts 342°
2026-05-05 21:14 11.48860 -67.27517 24276 ft 392 kts 342°
2026-05-05 21:14 11.51499 -67.28359 24576 ft 393 kts 342°
2026-05-05 21:14 11.54123 -67.29193 24873 ft 394 kts 342°
2026-05-05 21:14 11.56722 -67.30018 25140 ft 396 kts 342°
2026-05-05 21:15 11.59373 -67.30858 25336 ft 400 kts 342°
2026-05-05 21:15 11.62014 -67.31714 25515 ft 403 kts 341°
2026-05-05 21:15 11.64707 -67.32600 25692 ft 407 kts 341°
2026-05-05 21:15 11.67425 -67.33499 25870 ft 410 kts 341°
2026-05-05 21:16 11.70147 -67.34400 26046 ft 413 kts 341°
2026-05-05 21:16 11.72855 -67.35297 26219 ft 416 kts 341°
2026-05-05 21:16 11.75639 -67.36218 26397 ft 419 kts 341°
2026-05-05 21:16 11.78444 -67.37145 26574 ft 421 kts 341°
2026-05-05 21:17 11.81242 -67.38069 26750 ft 424 kts 341°
2026-05-05 21:17 11.84016 -67.38985 26924 ft 426 kts 341°
2026-05-05 21:17 11.86832 -67.39914 27099 ft 428 kts 341°
2026-05-05 21:17 11.89680 -67.40854 27219 ft 431 kts 341°
2026-05-05 21:18 11.92563 -67.41805 27304 ft 435 kts 341°
2026-05-05 21:18 11.95415 -67.42746 27381 ft 438 kts 341°
2026-05-05 21:18 11.98376 -67.43724 27460 ft 442 kts 341°
2026-05-05 21:18 12.01275 -67.44681 27536 ft 445 kts 341°
2026-05-05 21:19 12.04218 -67.45652 27612 ft 448 kts 341°
2026-05-05 21:19 12.07215 -67.46641 27688 ft 451 kts 341°
2026-05-05 21:19 12.10181 -67.47621 27763 ft 453 kts 341°
2026-05-05 21:19 12.13199 -67.48617 27840 ft 456 kts 341°
2026-05-05 21:20 12.16206 -67.49610 27917 ft 458 kts 341°
2026-05-05 21:20 12.19248 -67.50616 27995 ft 460 kts 342°
2026-05-05 21:20 12.25374 -67.52640 28147 ft 464 kts 341°
2026-05-05 21:21 12.31532 -67.54676 28299 ft 467 kts 342°
2026-05-05 21:21 12.37730 -67.56725 28450 ft 469 kts 342°
2026-05-05 21:22 12.43944 -67.58781 28600 ft 471 kts 341°
2026-05-05 21:22 12.50240 -67.60865 28752 ft 473 kts 341°
2026-05-05 21:23 12.56468 -67.62929 28902 ft 475 kts 341°
2026-05-05 21:23 12.62771 -67.65018 29054 ft 476 kts 341°
2026-05-05 21:24 12.69065 -67.67105 29206 ft 476 kts 341°
2026-05-05 21:24 12.75364 -67.69200 29356 ft 477 kts 341°
2026-05-05 21:25 12.81718 -67.71353 29507 ft 477 kts 341°
2026-05-05 21:25 12.87950 -67.73479 29657 ft 478 kts 340°
2026-05-05 21:26 12.94289 -67.75644 29808 ft 478 kts 340°
2026-05-05 21:26 13.00592 -67.77797 29918 ft 479 kts 340°
2026-05-05 21:27 13.06958 -67.79984 29932 ft 482 kts 339°
2026-05-05 21:27 13.09924 -67.81534 29928 ft 481 kts 323°
2026-05-05 21:27 13.12513 -67.83747 29937 ft 482 kts 320°
2026-05-05 21:28 13.17903 -67.87794 29934 ft 484 kts 324°
2026-05-05 21:28 13.23479 -67.91712 29932 ft 487 kts 325°
2026-05-05 21:29 13.29080 -67.95631 29931 ft 488 kts 325°
2026-05-05 21:29 13.34663 -67.99565 29931 ft 489 kts 324°
2026-05-05 21:30 13.40262 -68.03534 29930 ft 489 kts 324°
2026-05-05 21:30 13.45853 -68.07512 29930 ft 489 kts 324°
2026-05-05 21:31 13.51434 -68.11495 29930 ft 488 kts 324°
2026-05-05 21:31 13.57011 -68.15480 29929 ft 487 kts 324°
2026-05-05 21:32 13.62575 -68.19461 29929 ft 486 kts 324°
2026-05-05 21:32 13.68140 -68.23446 29929 ft 486 kts 324°
2026-05-05 21:33 13.73651 -68.27396 29928 ft 485 kts 324°
2026-05-05 21:33 13.79177 -68.31359 29928 ft 485 kts 324°
2026-05-05 21:34 13.84730 -68.35332 29928 ft 485 kts 324°
2026-05-05 21:34 13.90293 -68.39280 29928 ft 485 kts 324°
2026-05-05 21:35 13.95786 -68.43174 29928 ft 484 kts 324°
2026-05-05 21:35 14.01300 -68.47123 29927 ft 484 kts 324°
2026-05-05 21:36 14.06841 -68.51112 29927 ft 484 kts 324°
2026-05-05 21:36 14.12372 -68.55100 29926 ft 484 kts 324°
2026-05-05 21:37 14.17872 -68.59068 29927 ft 484 kts 324°
2026-05-05 21:37 14.23405 -68.63061 29927 ft 484 kts 324°
2026-05-05 21:38 14.28887 -68.67018 29926 ft 484 kts 324°
2026-05-05 21:38 14.34436 -68.71027 29926 ft 484 kts 324°
2026-05-05 21:39 14.39936 -68.74999 29926 ft 484 kts 324°
2026-05-05 21:39 14.45432 -68.78960 29925 ft 484 kts 324°
2026-05-05 21:40 14.50906 -68.82906 29925 ft 484 kts 324°
2026-05-05 21:40 14.56442 -68.86898 29925 ft 484 kts 324°
2026-05-05 21:41 14.61051 -68.90224 29925 ft 484 kts 324°
2026-05-05 21:41 14.67484 -68.94870 29925 ft 484 kts 324°
2026-05-05 21:42 14.72974 -68.98838 29925 ft 484 kts 324°
2026-05-05 21:42 14.77571 -69.02163 29925 ft 484 kts 324°
2026-05-05 21:43 14.83112 -69.06177 29925 ft 484 kts 324°
2026-05-05 21:43 14.88598 -69.10155 29925 ft 484 kts 324°
2026-05-05 21:44 14.94106 -69.14147 29925 ft 484 kts 324°
2026-05-05 21:44 14.99636 -69.18155 29924 ft 484 kts 324°
2026-05-05 21:45 15.05129 -69.22138 29924 ft 484 kts 324°
2026-05-05 21:45 15.10663 -69.26154 29924 ft 484 kts 324°
2026-05-05 21:46 15.16144 -69.30134 29928 ft 484 kts 324°
2026-05-05 21:46 15.21680 -69.34126 29929 ft 484 kts 324°
2026-05-05 21:47 15.27203 -69.38077 29930 ft 482 kts 323°
2026-05-05 21:47 15.32645 -69.41966 29990 ft 466 kts 323°
2026-05-05 21:48 15.37969 -69.45776 30001 ft 465 kts 323°
2026-05-05 21:48 15.43275 -69.49577 30005 ft 466 kts 322°
2026-05-05 21:49 15.48604 -69.53403 30006 ft 464 kts 324°
2026-05-05 21:49 15.53898 -69.57254 30011 ft 463 kts 320°
2026-05-05 21:50 15.56115 -69.59582 30013 ft 460 kts 307°
2026-05-05 21:50 15.58170 -69.62173 30011 ft 460 kts 312°
2026-05-05 21:50 15.62642 -69.67006 30002 ft 462 kts 314°
2026-05-05 21:51 15.67149 -69.71713 29999 ft 463 kts 314°
2026-05-05 21:51 15.71689 -69.76467 29998 ft 465 kts 314°
2026-05-05 21:52 15.78486 -69.83653 29999 ft 466 kts 314°
2026-05-05 21:53 15.83009 -69.88466 30009 ft 464 kts 314°
2026-05-05 21:53 15.87493 -69.93253 30012 ft 465 kts 314°
2026-05-05 21:54 15.91967 -69.98041 30013 ft 464 kts 314°
2026-05-05 21:54 15.96491 -70.02890 30013 ft 464 kts 314°
2026-05-05 21:55 16.01109 -70.07621 30006 ft 466 kts 321°
2026-05-05 21:55 16.06680 -70.11100 30018 ft 466 kts 325°
2026-05-05 21:56 16.12027 -70.14896 30013 ft 466 kts 324°
2026-05-05 21:56 16.17312 -70.18761 30012 ft 466 kts 323°
2026-05-05 21:57 16.22629 -70.22630 30014 ft 467 kts 323°
2026-05-05 21:57 16.27993 -70.26508 30014 ft 465 kts 324°
2026-05-05 21:58 16.33286 -70.30314 30012 ft 465 kts 324°
2026-05-05 21:58 16.38620 -70.34136 30013 ft 466 kts 323°
2026-05-05 21:59 16.43974 -70.37970 30014 ft 466 kts 323°
2026-05-05 21:59 16.49326 -70.41801 30014 ft 467 kts 323°
2026-05-05 22:00 16.54668 -70.45625 30014 ft 467 kts 323°
2026-05-05 22:00 16.60042 -70.49473 30014 ft 468 kts 323°
2026-05-05 22:01 16.65407 -70.53317 30014 ft 468 kts 323°
2026-05-05 22:01 16.70790 -70.57176 30014 ft 468 kts 323°
2026-05-05 22:02 16.76166 -70.61032 30014 ft 468 kts 323°
2026-05-05 22:02 16.81485 -70.64850 30014 ft 468 kts 323°
2026-05-05 22:03 16.86864 -70.68713 30014 ft 468 kts 323°
2026-05-05 22:03 16.92224 -70.72566 30014 ft 468 kts 323°
2026-05-05 22:04 16.97590 -70.76425 30014 ft 468 kts 323°
2026-05-05 22:04 17.02967 -70.80297 30012 ft 467 kts 324°
2026-05-05 22:05 17.08270 -70.84117 30001 ft 467 kts 325°
2026-05-05 22:05 17.13627 -70.87974 29997 ft 467 kts 325°
2026-05-05 22:06 17.18988 -70.91834 29999 ft 468 kts 324°
2026-05-05 22:06 17.24338 -70.95692 30001 ft 467 kts 325°
2026-05-05 22:07 17.29686 -70.99552 30000 ft 467 kts 326°
2026-05-05 22:07 17.35042 -71.03417 30003 ft 465 kts 325°
2026-05-05 22:08 17.40389 -71.07281 30005 ft 465 kts 324°
2026-05-05 22:08 17.45708 -71.11125 30009 ft 465 kts 324°
2026-05-05 22:09 17.50997 -71.14953 30008 ft 465 kts 325°
2026-05-05 22:09 17.56312 -71.18803 30008 ft 465 kts 325°
2026-05-05 22:10 17.61633 -71.22657 30010 ft 464 kts 324°
2026-05-05 22:10 17.66919 -71.26490 30010 ft 464 kts 324°
2026-05-05 22:11 17.72231 -71.30345 30011 ft 464 kts 324°
2026-05-05 22:11 17.77508 -71.34177 30023 ft 456 kts 324°
2026-05-05 22:12 17.82711 -71.37958 30025 ft 455 kts 324°
2026-05-05 22:12 17.87919 -71.41747 30147 ft 456 kts 324°
2026-05-05 22:13 17.93147 -71.45552 30297 ft 457 kts 324°
2026-05-05 22:13 17.98371 -71.49354 30448 ft 458 kts 322°
2026-05-05 22:14 18.03600 -71.53168 30602 ft 459 kts 322°
2026-05-05 22:14 18.08735 -71.56918 30771 ft 459 kts 322°
2026-05-05 22:15 18.14010 -71.60771 30957 ft 460 kts 321°
2026-05-05 22:15 18.19307 -71.64643 31112 ft 460 kts 321°
2026-05-05 22:16 18.24531 -71.68463 31267 ft 460 kts 321°
2026-05-05 22:16 18.29740 -71.72275 31418 ft 461 kts 321°
2026-05-05 22:17 18.35078 -71.76185 31585 ft 461 kts 321°
2026-05-05 22:17 18.40312 -71.80020 31739 ft 461 kts 321°
2026-05-05 22:18 18.45581 -71.83884 31890 ft 461 kts 321°
2026-05-05 22:18 18.50855 -71.87749 31997 ft 463 kts 322°
2026-05-05 22:19 18.56513 -71.91167 32013 ft 469 kts 327°
2026-05-05 22:19 18.62237 -71.94493 32012 ft 471 kts 327°
2026-05-05 22:20 18.67969 -71.97826 32009 ft 474 kts 327°
2026-05-05 22:20 18.73750 -72.01190 32009 ft 475 kts 327°
2026-05-05 22:21 18.79548 -72.04563 32009 ft 474 kts 327°
2026-05-05 22:21 18.85308 -72.07918 32009 ft 473 kts 327°
2026-05-05 22:22 18.91056 -72.11271 32010 ft 473 kts 327°
2026-05-05 22:22 18.96810 -72.14632 32010 ft 472 kts 327°
2026-05-05 22:23 19.02557 -72.17991 32011 ft 472 kts 327°
2026-05-05 22:23 19.08271 -72.21336 32013 ft 471 kts 327°
2026-05-05 22:24 19.14011 -72.24700 32013 ft 471 kts 327°
2026-05-05 22:24 19.19743 -72.28062 32016 ft 470 kts 327°
2026-05-05 22:25 19.25470 -72.31423 32016 ft 470 kts 327°
2026-05-05 22:25 19.31186 -72.34781 32016 ft 470 kts 327°
2026-05-05 22:26 19.36914 -72.38149 32018 ft 470 kts 327°
2026-05-05 22:26 19.42626 -72.41510 32019 ft 469 kts 327°
2026-05-05 22:27 19.48297 -72.44850 32020 ft 469 kts 327°
2026-05-05 22:27 19.54027 -72.48226 32021 ft 469 kts 327°
2026-05-05 22:28 19.58780 -72.51030 32021 ft 469 kts 326°
2026-05-05 22:28 19.65405 -72.54941 32021 ft 469 kts 326°
2026-05-05 22:29 19.71103 -72.58307 32021 ft 469 kts 326°
2026-05-05 22:29 19.75836 -72.61144 32021 ft 467 kts 324°
2026-05-05 22:29 19.78342 -72.63292 32020 ft 460 kts 311°
2026-05-05 22:30 19.80300 -72.65953 32022 ft 454 kts 299°
2026-05-05 22:30 19.81640 -72.68965 32023 ft 451 kts 288°
2026-05-05 22:30 19.82532 -72.72138 32024 ft 450 kts 283°
2026-05-05 22:31 19.83884 -72.78643 32021 ft 450 kts 281°
2026-05-05 22:31 19.85148 -72.85185 32020 ft 450 kts 281°
2026-05-05 22:32 19.86451 -72.91645 32021 ft 451 kts 281°
2026-05-05 22:32 19.87873 -72.98132 32024 ft 451 kts 282°
2026-05-05 22:33 19.89342 -73.04596 32023 ft 451 kts 282°
2026-05-05 22:33 19.90801 -73.11072 32023 ft 451 kts 282°
2026-05-05 22:34 19.92202 -73.17567 32024 ft 451 kts 281°
2026-05-05 22:34 19.93629 -73.24065 32024 ft 451 kts 282°
2026-05-05 22:35 19.95070 -73.30551 32024 ft 451 kts 282°
2026-05-05 22:35 19.96522 -73.37037 32024 ft 451 kts 282°
2026-05-05 22:36 19.98271 -73.43427 32024 ft 452 kts 285°
2026-05-05 22:36 20.00161 -73.49803 32024 ft 452 kts 285°
2026-05-05 22:37 20.02064 -73.56185 32024 ft 452 kts 285°
2026-05-05 22:37 20.03953 -73.62561 32024 ft 452 kts 285°
2026-05-05 22:38 20.05832 -73.68940 32024 ft 452 kts 285°
2026-05-05 22:38 20.07701 -73.75320 32024 ft 452 kts 285°
2026-05-05 22:39 20.09573 -73.81733 32024 ft 452 kts 285°
2026-05-05 22:39 20.11416 -73.88062 32024 ft 452 kts 285°
2026-05-05 22:40 20.13273 -73.94451 32024 ft 452 kts 285°
2026-05-05 22:40 20.15149 -74.00843 32023 ft 453 kts 287°
2026-05-05 22:40 20.16533 -74.03865 32022 ft 457 kts 299°
2026-05-05 22:41 20.18502 -74.06508 32026 ft 462 kts 309°
2026-05-05 22:41 20.22962 -74.11466 32025 ft 463 kts 310°
2026-05-05 22:42 20.27500 -74.16351 32024 ft 463 kts 311°
2026-05-05 22:42 20.32046 -74.21271 32024 ft 463 kts 310°
2026-05-05 22:43 20.36511 -74.26150 32024 ft 463 kts 310°
2026-05-05 22:43 20.40989 -74.31077 32024 ft 463 kts 310°
2026-05-05 22:44 20.45444 -74.36000 32024 ft 463 kts 310°
2026-05-05 22:44 20.49947 -74.40991 32024 ft 463 kts 310°
2026-05-05 22:45 20.54379 -74.45917 32024 ft 463 kts 310°
2026-05-05 22:45 20.58836 -74.50879 32024 ft 463 kts 310°
2026-05-05 22:46 20.63276 -74.55829 32024 ft 463 kts 310°
2026-05-05 22:46 20.67712 -74.60782 32024 ft 463 kts 310°
2026-05-05 22:47 20.72159 -74.65751 32024 ft 463 kts 310°
2026-05-05 22:47 20.76611 -74.70732 32024 ft 463 kts 310°
2026-05-05 22:48 20.81051 -74.75702 32024 ft 463 kts 310°
2026-05-05 22:48 20.85492 -74.80680 32024 ft 463 kts 310°
2026-05-05 22:49 20.89934 -74.85664 32024 ft 463 kts 310°
2026-05-05 22:49 20.94374 -74.90648 32024 ft 463 kts 310°
2026-05-05 22:50 20.98815 -74.95639 32024 ft 463 kts 310°
2026-05-05 22:50 21.03109 -75.00470 32024 ft 463 kts 310°
2026-05-05 22:51 21.07619 -75.05548 32024 ft 463 kts 309°
2026-05-05 22:51 21.12038 -75.10528 32024 ft 463 kts 309°
2026-05-05 22:52 21.16481 -75.15540 32024 ft 463 kts 309°
2026-05-05 22:52 21.20888 -75.20516 32024 ft 463 kts 309°
2026-05-05 22:53 21.25232 -75.25425 32024 ft 463 kts 309°
2026-05-05 22:53 21.29637 -75.30408 32024 ft 463 kts 309°
2026-05-05 22:54 21.34081 -75.35439 32024 ft 463 kts 309°
2026-05-05 22:54 21.38496 -75.40442 32024 ft 463 kts 309°
2026-05-05 22:55 21.42950 -75.45494 32024 ft 463 kts 309°
2026-05-05 22:55 21.45881 -75.48821 32024 ft 462 kts 309°